• In Russia
  • List of Countries
  • For 7 days
  • Water Temperature
  • Satellite Maps
  • Weather Map
  • Weather Widgets
  • user-avatar
    Login

    Hourly Weather Tiszakecske

    Today, 25 June, Monday

    Time Temperature Precipitation Wind Pressure Humidity
    00:00 +14°C° 0 mm 2 mps 755 mmHg 75%
    01:00 +13°C° 0 mm 1 mps 755 mmHg 78%
    02:00 +13°C° 0 mm 1 mps 755 mmHg 79%
    03:00 +13°C° 0 mm 1 mps 755 mmHg 80%
    04:00 +13°C° 0 mm 2 mps 755 mmHg 81%
    05:00 +14°C° 0 mm 2 mps 755 mmHg 77%
    06:00 +16°C° 0 mm 2 mps 756 mmHg 72%
    07:00 +18°C° 0 mm 2 mps 756 mmHg 66%
    08:00 +19°C° 0 mm 2 mps 756 mmHg 60%
    09:00 +20°C° 0 mm 2 mps 756 mmHg 55%
    10:00 +23°C° 0 mm 2 mps 756 mmHg 50%
    11:00 +23°C° 0 mm 2 mps 756 mmHg 47%
    12:00 +24°C° 0 mm 2 mps 756 mmHg 45%
    13:00 +24°C° 0 mm 1 mps 756 mmHg 42%
    14:00 +24°C° 0 mm 1 mps 756 mmHg 43%
    15:00 +24°C° 0 mm 1 mps 756 mmHg 43%
    16:00 +24°C° 0 mm 2 mps 755 mmHg 43%
    17:00 +23°C° 0 mm 2 mps 756 mmHg 48%
    18:00 +21°C° 0 mm 2 mps 756 mmHg 53%
    19:00 +20°C° 0 mm 2 mps 756 mmHg 58%
    20:00 +19°C° 0 mm 2 mps 756 mmHg 62%
    21:00 +18°C° 0 mm 2 mps 756 mmHg 65%
    22:00 +16°C° 0 mm 2 mps 756 mmHg 69%
    23:00 +16°C° 0 mm 2 mps 756 mmHg 72%

    Tomorrow, 26 June, Tuesday

    Time Temperature Precipitation Wind Pressure Humidity
    00:00 +15°C° 0 mm 2 mps 756 mmHg 75%
    01:00 +15°C° 0 mm 2 mps 756 mmHg 78%
    02:00 +14°C° 0 mm 2 mps 756 mmHg 80%
    03:00 +14°C° 0 mm 2 mps 756 mmHg 82%
    04:00 +13°C° 0 mm 2 mps 756 mmHg 84%
    05:00 +15°C° 0 mm 2 mps 756 mmHg 79%
    06:00 +17°C° 0 mm 2 mps 756 mmHg 73%
    07:00 +18°C° 0 mm 3 mps 756 mmHg 68%
    08:00 +20°C° 0 mm 2 mps 756 mmHg 63%
    09:00 +21°C° 0 mm 2 mps 756 mmHg 58%
    10:00 +24°C° 0 mm 2 mps 756 mmHg 52%
    11:00 +24°C° 0.1 mm 2 mps 755 mmHg 50%
    12:00 +25°C° 0.1 mm 2 mps 755 mmHg 47%
    13:00 +26°C° 0.1 mm 2 mps 755 mmHg 45%
    14:00 +26°C° 0 mm 2 mps 754 mmHg 45%
    15:00 +26°C° 0 mm 2 mps 754 mmHg 45%
    16:00 +26°C° 0 mm 2 mps 754 mmHg 46%
    17:00 +24°C° 0 mm 2 mps 754 mmHg 50%
    18:00 +23°C° 0 mm 2 mps 754 mmHg 55%
    19:00 +21°C° 0 mm 2 mps 754 mmHg 59%
    20:00 +20°C° 0 mm 2 mps 754 mmHg 61%
    21:00 +19°C° 0 mm 2 mps 754 mmHg 63%
    22:00 +18°C° 0 mm 2 mps 754 mmHg 65%
    23:00 +18°C° 0.1 mm 2 mps 754 mmHg 68%

    Day after tomorrow, 27 June, Wednesday

    Time Temperature Precipitation Wind Pressure Humidity
    00:00 +17°C° 0.1 mm 3 mps 754 mmHg 71%
    01:00 +17°C° 0.1 mm 3 mps 753 mmHg 73%
    02:00 +17°C° 0 mm 3 mps 753 mmHg 74%
    03:00 +16°C° 0 mm 3 mps 753 mmHg 75%
    04:00 +16°C° 0 mm 3 mps 753 mmHg 76%
    05:00 +17°C° 0.2 mm 3 mps 753 mmHg 78%
    06:00 +17°C° 0.2 mm 4 mps 753 mmHg 80%
    07:00 +17°C° 0.2 mm 4 mps 753 mmHg 82%
    08:00 +17°C° 0.4 mm 4 mps 753 mmHg 83%
    09:00 +18°C° 0.4 mm 4 mps 753 mmHg 84%
    10:00 +17°C° 0.4 mm 5 mps 753 mmHg 85%
    11:00 +19°C° 0.3 mm 5 mps 752 mmHg 81%
    12:00 +20°C° 0.3 mm 5 mps 752 mmHg 76%
    13:00 +21°C° 0.3 mm 5 mps 752 mmHg 72%
    14:00 +21°C° 0.3 mm 4 mps 751 mmHg 70%
    15:00 +22°C° 0.3 mm 4 mps 751 mmHg 68%
    16:00 +22°C° 0.3 mm 4 mps 751 mmHg 66%
    17:00 +21°C° 0.6 mm 4 mps 750 mmHg 72%
    18:00 +20°C° 0.6 mm 4 mps 750 mmHg 77%
    19:00 +19°C° 0.6 mm 4 mps 750 mmHg 83%
    20:00 +19°C° 2.1 mm 4 mps 749 mmHg 86%
    21:00 +19°C° 2.1 mm 4 mps 749 mmHg 90%
    22:00 +18°C° 2.1 mm 4 mps 748 mmHg 93%
    23:00 +18°C° 0.5 mm 4 mps 748 mmHg 94%

    28 June, Thursday

    Time Temperature Precipitation Wind Pressure Humidity
    00:00 +18°C° 0.5 mm 3 mps 748 mmHg 94%
    01:00 +18°C° 0.5 mm 3 mps 747 mmHg 95%
    02:00 +18°C° 0 mm 3 mps 747 mmHg 96%
    03:00 +17°C° 0 mm 3 mps 747 mmHg 97%
    04:00 +17°C° 0 mm 2 mps 747 mmHg 97%
    05:00 +18°C° 0 mm 2 mps 747 mmHg 95%
    06:00 +18°C° 0 mm 2 mps 748 mmHg 92%
    07:00 +19°C° 0 mm 2 mps 748 mmHg 89%
    08:00 +21°C° 0 mm 2 mps 748 mmHg 81%
    09:00 +23°C° 0 mm 2 mps 748 mmHg 73%
    10:00 +25°C° 0 mm 2 mps 748 mmHg 66%
    11:00 +26°C° 0 mm 2 mps 748 mmHg 62%
    12:00 +27°C° 0 mm 2 mps 748 mmHg 58%
    13:00 +28°C° 0 mm 2 mps 748 mmHg 54%
    14:00 +27°C° 0.5 mm 2 mps 748 mmHg 58%
    15:00 +27°C° 0.5 mm 3 mps 748 mmHg 63%
    16:00 +27°C° 0.5 mm 3 mps 747 mmHg 67%
    17:00 +25°C° 0.8 mm 3 mps 747 mmHg 73%
    18:00 +24°C° 0.8 mm 2 mps 747 mmHg 79%
    19:00 +23°C° 0.8 mm 2 mps 747 mmHg 85%
    20:00 +21°C° 0.9 mm 3 mps 747 mmHg 87%
    21:00 +21°C° 0.9 mm 3 mps 747 mmHg 90%
    22:00 +20°C° 0.9 mm 3 mps 747 mmHg 92%
    23:00 +20°C° 0.2 mm 3 mps 747 mmHg 93%

    29 June, Friday

    Time Temperature Precipitation Wind Pressure Humidity
    00:00 +20°C° 0.2 mm 3 mps 747 mmHg 93%
    01:00 +20°C° 0.2 mm 3 mps 747 mmHg 94%
    02:00 +19°C° 0.8 mm 3 mps 746 mmHg 95%
    03:00 +19°C° 0.8 mm 3 mps 746 mmHg 95%
    04:00 +19°C° 0.8 mm 3 mps 746 mmHg 95%
    05:00 +20°C° 0.1 mm 3 mps 746 mmHg 92%
    06:00 +21°C° 0.1 mm 3 mps 746 mmHg 88%
    07:00 +22°C° 0.1 mm 4 mps 746 mmHg 85%
    08:00 +25°C° 0.1 mm 4 mps 746 mmHg 79%
    09:00 +26°C° 0.1 mm 4 mps 746 mmHg 73%
    10:00 +28°C° 0.1 mm 4 mps 746 mmHg 66%
    11:00 +29°C° 0.1 mm 4 mps 746 mmHg 63%
    12:00 +30°C° 0.1 mm 4 mps 746 mmHg 60%
    13:00 +32°C° 0.1 mm 4 mps 745 mmHg 57%
    14:00 +30°C° 2 mm 4 mps 745 mmHg 60%
    15:00 +30°C° 2 mm 4 mps 745 mmHg 63%
    16:00 +29°C° 2 mm 4 mps 745 mmHg 66%
    17:00 +28°C° 1.8 mm 4 mps 745 mmHg 71%
    18:00 +27°C° 1.8 mm 3 mps 745 mmHg 76%
    19:00 +25°C° 1.8 mm 3 mps 745 mmHg 81%
    20:00 +25°C° 0.1 mm 4 mps 746 mmHg 83%
    21:00 +23°C° 0.1 mm 4 mps 746 mmHg 84%
    22:00 +22°C° 0.1 mm 4 mps 746 mmHg 86%
    23:00 +21°C° 0 mm 4 mps 746 mmHg 86%

    30 June, Saturday

    Time Temperature Precipitation Wind Pressure Humidity
    00:00 +21°C° 0 mm 4 mps 746 mmHg 86%
    01:00 +20°C° 0 mm 4 mps 747 mmHg 87%
    02:00 +20°C° 0 mm 4 mps 747 mmHg 87%
    03:00 +20°C° 0 mm 4 mps 747 mmHg 87%
    04:00 +20°C° 0 mm 4 mps 748 mmHg 87%
    05:00 +21°C° 0 mm 5 mps 748 mmHg 83%
    06:00 +22°C° 0 mm 6 mps 748 mmHg 78%
    07:00 +23°C° 0 mm 6 mps 749 mmHg 74%
    08:00 +24°C° 0 mm 6 mps 749 mmHg 69%
    09:00 +27°C° 0 mm 6 mps 750 mmHg 63%
    10:00 +28°C° 0 mm 6 mps 750 mmHg 58%
    11:00 +28°C° 0 mm 6 mps 750 mmHg 55%
    12:00 +28°C° 0 mm 6 mps 750 mmHg 53%
    13:00 +29°C° 0 mm 6 mps 750 mmHg 50%
    14:00 +28°C° 0 mm 6 mps 750 mmHg 50%
    15:00 +27°C° 0 mm 6 mps 750 mmHg 49%
    16:00 +27°C° 0 mm 6 mps 751 mmHg 49%
    17:00 +25°C° 0 mm 5 mps 751 mmHg 52%
    18:00 +23°C° 0 mm 5 mps 752 mmHg 54%
    19:00 +21°C° 0 mm 4 mps 752 mmHg 57%
    20:00 +20°C° 0 mm 4 mps 753 mmHg 58%
    21:00 +20°C° 0 mm 4 mps 753 mmHg 58%
    22:00 +19°C° 0 mm 4 mps 754 mmHg 59%
    23:00 +18°C° 0 mm 4 mps 754 mmHg 61%
    Show more